Voltar ao catálogo

STARLINK-4208

AtivoComunicaçõesVLEO
NORAD 52844·PAYLOAD·🇺🇸 United States

Lançado Jun 17, 2022 de Cape Canaveral Space Force Station

Loading…

Próximas Passagens (próximas 24 horas)

TLE

AtualizadoSource: CelesTrak SupGP

Época: Sep 14, 2026, 21:44 UTC

1 52844C 22062Q   26257.90604167  .00028081  00000+0  85214-3 0  2578
2 52844  53.1570 253.3467 0001232  86.2682 318.7294 15.33533634    17

Acompanhe STARLINK-4208 em tempo real com AllMySat

Download on the App Store